Location: Aero Estates Airport (historical)
(33.2985°N, 96.8642°W)
Time: 01:51:02
(UTC+00:00)

BlueWalker 3 - Pass Details

Date: 21 January 2026
Orbit: 450 x 461 km, 53.2° (Epoch: 14 February)

Event Time Altitude Azimuth Distance (km) Brightness Sun altitude
Rises 00:06:18 0° 208° (SSW) 2,442 6.3 -4.4°
Reaches altitude 10° 00:08:29 10° 201° (SSW) 1,572 5.1 -4.8°
Maximum altitude 00:11:50 42° 130° (SE) 655 2.3 -5.5°
Drops below altitude 10° 00:15:12 10° 58° (ENE) 1,578 3.8 -6.1°
Enters shadow 00:15:46 - 56° (NE) 1,794 4.1 -6.3°
